,,Stat5,,Stat1,,Stat2,,Stat3,,Stat4,,Wind1,,Wind1,
time,status,PA1M_AVG,status,PR1M_SUM,status,RH1M_AVG,status,SR1M_AVG,status,TA1M_AVG,status,W1dAve1m,status,W1sAve1m,
2002-04-09, 00:00:00,VALID,918.706,VALID,0,VALID,99.1394,VALID,-0.0849042,VALID,19.3971,VALID,67,VALID,0.809961,
2002-04-09, 00:01:00,VALID,918.724,VALID,0,VALID,99.1457,VALID,-0.0509425,VALID,19.41,VALID,93,VALID,0.791667,
2002-04-09, 00:02:00,VALID,918.734,VALID,0,VALID,99.1368,VALID,-0.0849042,VALID,19.3968,VALID,93,VALID,0.536133,
2002-04-09, 00:03:00,VALID,918.725,VALID,0,VALID,99.1343,VALID,-0.0849042,VALID,19.3966,VALID,85,VALID,0.512019,
2002-04-09, 00:04:00,VALID,918.722,VALID,0,VALID,99.1432,VALID,-0.0679233,VALID,19.4035,VALID,106,VALID,0.556538,
2002-04-09, 00:05:00,VALID,918.705,VALID,0,VALID,99.1546,VALID,-0.0339617,VALID,19.4296,VALID,118,VALID,0.798725,
2002-04-09, 00:06:00,VALID,918.68,VALID,0,VALID,99.1724,VALID,-0.0339617,VALID,19.416,VALID,121,VALID,0.536659,
2002-04-09, 00:07:00,VALID,918.646,VALID,0,VALID,99.1712,VALID,-0.0169808,VALID,19.4326,VALID,109,VALID,0.444141,
2002-04-09, 00:08:00,VALID,918.617,VALID,0,VALID,99.1763,VALID,-0.0509425,VALID,19.4192,VALID,85,VALID,0.719172,
2002-04-09, 00:09:00,VALID,918.578,VALID,0,VALID,99.1839,VALID,-0.0339617,VALID,19.4289,VALID,101,VALID,0.71895,
2002-04-09, 00:10:00,VALID,918.551,VALID,0,VALID,99.1902,VALID,0,VALID,19.4256,VALID,96,VALID,0.66887,
2002-04-09, 00:11:00,VALID,918.539,VALID,0,VALID,99.1979,VALID,-0.0169808,VALID,19.4294,VALID,85,VALID,1.10895,
2002-04-09, 00:12:00,VALID,918.484,VALID,0,VALID,99.1991,VALID,0.0849042,VALID,19.4209,VALID,78,VALID,0.807091,
2002-04-09, 00:13:00,VALID,918.484,VALID,0,VALID,99.1991,VALID,0.0679233,VALID,19.4214,VALID,85,VALID,0.748766,
2002-04-09, 00:14:00,VALID,918.469,VALID,0,VALID,99.2106,VALID,0.0509425,VALID,19.4247,VALID,97,VALID,0.715061,
2002-04-09, 00:15:00,VALID,918.451,VALID,0,VALID,99.2131,VALID,0.0509425,VALID,19.4247,VALID,106,VALID,0.564103,
2002-04-09, 00:16:00,VALID,918.436,VALID,0,VALID,99.2119,VALID,0.0679233,VALID,19.418,VALID,111,VALID,0.405016,
2002-04-09, 00:17:00,VALID,918.413,VALID,0,VALID,99.2182,VALID,0.0679233,VALID,19.415,VALID,114,VALID,0.55891,
2002-04-09, 00:18:00,VALID,918.395,VALID,0,VALID,99.2119,VALID,0.0339617,VALID,19.4048,VALID,85,VALID,0.467566,
2002-04-09, 00:19:00,VALID,918.37,VALID,0,VALID,99.2093,VALID,0.0509425,VALID,19.3986,VALID,82,VALID,0.38384,
2002-04-09, 00:20:00,VALID,918.367,VALID,0,VALID,99.2068,VALID,0.0679233,VALID,19.3926,VALID,85,VALID,0.534628,
2002-04-09, 00:21:00,VALID,918.356,VALID,0,VALID,99.2119,VALID,0.0509425,VALID,19.376,VALID,116,VALID,0.570536,
2002-04-09, 00:22:00,VALID,918.357,VALID,0,VALID,99.2119,VALID,0.0339617,VALID,19.3531,VALID,124,VALID,1.15156,
2002-04-09, 00:23:00,VALID,918.334,VALID,0,VALID,99.2182,VALID,0.0509425,VALID,19.3725,VALID,133,VALID,0.982008,
2002-04-09, 00:24:00,VALID,918.344,VALID,0,VALID,99.236,VALID,0.0679233,VALID,19.3633,VALID,120,VALID,0.67947,
2002-04-09, 00:25:00,VALID,918.343,VALID,0,VALID,99.236,VALID,0.101885,VALID,19.3757,VALID,157,VALID,0.847039,
2002-04-09, 00:26:00,VALID,918.355,VALID,0,VALID,99.2538,VALID,0.0849042,VALID,19.3919,VALID,127,VALID,0.917067,
2002-04-09, 00:27:00,VALID,918.349,VALID,0,VALID,99.2602,VALID,-0.0169808,VALID,19.4095,VALID,131,VALID,0.808008,
2002-04-09, 00:28:00,VALID,918.35,VALID,0,VALID,99.2691,VALID,-0.0509425,VALID,19.4222,VALID,117,VALID,0.726116,
2002-04-09, 00:29:00,VALID,918.372,VALID,0,VALID,99.2793,VALID,-0.0339617,VALID,19.4289,VALID,135,VALID,0.572002,
2002-04-09, 00:30:00,VALID,918.381,VALID,0,VALID,99.2678,VALID,-0.0509425,VALID,19.4453,VALID,134,VALID,0.878906,
2002-04-09, 00:31:00,VALID,918.383,VALID,0,VALID,99.2742,VALID,-0.0509425,VALID,19.4353,VALID,136,VALID,0.902009,
2002-04-09, 00:32:00,VALID,918.38,VALID,0,VALID,99.2691,VALID,-0.0339617,VALID,19.442,VALID,125,VALID,0.522035,
2002-04-09, 00:33:00,VALID,918.373,VALID,0,VALID,99.2729,VALID,-0.0679233,VALID,19.4189,VALID,119,VALID,0.285473,
2002-04-09, 00:34:00,VALID,918.351,VALID,0,VALID,99.2525,VALID,-0.0339617,VALID,19.4261,VALID,136,VALID,0.683183,
2002-04-09, 00:35:00,VALID,918.349,VALID,0,VALID,99.2538,VALID,-0.0339617,VALID,19.4229,VALID,146,VALID,0.915848,
2002-04-09, 00:36:00,VALID,918.341,VALID,0,VALID,99.2538,VALID,-0.0679233,VALID,19.4127,VALID,142,VALID,0.508614,
2002-04-09, 00:37:00,VALID,918.342,VALID,0,VALID,99.2538,VALID,-0.0509425,VALID,19.4063,VALID,131,VALID,0.572917,
2002-04-09, 00:38:00,VALID,918.34,VALID,0,VALID,99.2475,VALID,-0.0509425,VALID,19.3996,VALID,126,VALID,0.369358,
2002-04-09, 00:39:00,VALID,918.338,VALID,0,VALID,99.2475,VALID,-0.0509425,VALID,19.4097,VALID,97,VALID,0.0941612,
2002-04-09, 00:40:00,VALID,918.338,VALID,0,VALID,99.2335,VALID,-0.0509425,VALID,19.4,VALID,80,VALID,0.126803,
2002-04-09, 00:41:00,VALID,918.316,VALID,0,VALID,99.2373,VALID,-0.0679233,VALID,19.4035,VALID,70,VALID,0.425781,
2002-04-09, 00:42:00,VALID,918.301,VALID,0,VALID,99.2462,VALID,0.0679233,VALID,19.4053,VALID,59,VALID,0.297768,
2002-04-09, 00:43:00,VALID,918.289,VALID,0,VALID,99.2411,VALID,0.0339617,VALID,19.3986,VALID,58,VALID,0.466427,
2002-04-09, 00:44:00,VALID,918.289,VALID,0,VALID,99.2271,VALID,0.0509425,VALID,19.3951,VALID,52,VALID,0.451057,
2002-04-09, 00:45:00,VALID,918.272,VALID,0,VALID,99.2182,VALID,0.101885,VALID,19.3854,VALID,52,VALID,0.424554,
2002-04-09, 00:46:00,VALID,918.271,VALID,0,VALID,99.208,VALID,0.0679233,VALID,19.366,VALID,52,VALID,0.342748,
2002-04-09, 00:47:00,VALID,918.266,VALID,0,VALID,99.1979,VALID,0.0849042,VALID,19.3469,VALID,56,VALID,0.524493,
2002-04-09, 00:48:00,VALID,918.261,VALID,0,VALID,99.1648,VALID,0.101885,VALID,19.3146,VALID,66,VALID,0.703947,
2002-04-09, 00:49:00,VALID,918.239,VALID,0,VALID,99.1496,VALID,0.0849042,VALID,19.2955,VALID,75,VALID,0.806696,
2002-04-09, 00:50:00,VALID,918.239,VALID,0,VALID,99.1508,VALID,0.0849042,VALID,19.2662,VALID,79,VALID,0.784054,
2002-04-09, 00:51:00,VALID,918.241,VALID,0,VALID,99.1585,VALID,0.0679233,VALID,19.2632,VALID,92,VALID,0.865294,
2002-04-09, 00:52:00,VALID,918.235,VALID,0,VALID,99.1712,VALID,0.0509425,VALID,19.2532,VALID,107,VALID,0.92296,
2002-04-09, 00:53:00,VALID,918.224,VALID,0,VALID,99.1953,VALID,0.0849042,VALID,19.2756,VALID,108,VALID,0.932155,
2002-04-09, 00:54:00,VALID,918.218,VALID,0,VALID,99.1991,VALID,0.0509425,VALID,19.292,VALID,110,VALID,1.03586,
2002-04-09, 00:55:00,VALID,918.216,VALID,0,VALID,99.189,VALID,0.0679233,VALID,19.3151,VALID,111,VALID,1.09219,
2002-04-09, 00:56:00,VALID,918.19,VALID,0,VALID,99.1826,VALID,0.0679233,VALID,19.3213,VALID,108,VALID,0.956027,
2002-04-09, 00:57:00,VALID,918.191,VALID,0,VALID,99.1635,VALID,0.0849042,VALID,19.3114,VALID,95,VALID,0.888936,
2002-04-09, 00:58:00,VALID,918.161,VALID,0,VALID,99.1559,VALID,0.0339617,VALID,19.3278,VALID,75,VALID,1.09605,
2002-04-09, 00:59:00,VALID,918.15,VALID,0,VALID,99.1216,VALID,0.0339617,VALID,19.3144,VALID,63,VALID,0.864286,
2002-04-09, 01:00:00,VALID,918.132,VALID,0,VALID,99.1228,VALID,0.0169808,VALID,19.3116,VALID,84,VALID,0.982973,
2002-04-09, 01:01:00,VALID,918.114,VALID,0,VALID,99.1038,VALID,0.0509425,VALID,19.3054,VALID,91,VALID,0.809966,
2002-04-09, 01:02:00,VALID,918.099,VALID,0,VALID,99.0898,VALID,0.0339617,VALID,19.2992,VALID,106,VALID,0.865543,
2002-04-09, 01:03:00,VALID,918.071,VALID,0,VALID,99.0822,VALID,0.101885,VALID,19.2893,VALID,96,VALID,0.852232,
2002-04-09, 01:04:00,VALID,918.055,VALID,0,VALID,99.0694,VALID,0.0339617,VALID,19.283,VALID,81,VALID,0.614383,
2002-04-09, 01:05:00,VALID,918.028,VALID,0,VALID,99.0631,VALID,0.0509425,VALID,19.2632,VALID,76,VALID,0.910275,
2002-04-09, 01:06:00,VALID,918.001,VALID,0,VALID,99.0593,VALID,0.0509425,VALID,19.2537,VALID,77,VALID,0.845052,
2002-04-09, 01:07:00,VALID,917.965,VALID,0,VALID,99.044,VALID,0,VALID,19.2304,VALID,81,VALID,0.660156,
2002-04-09, 01:08:00,VALID,917.943,VALID,0,VALID,99.0542,VALID,0.0679233,VALID,19.2406,VALID,94,VALID,0.991386,
2002-04-09, 01:09:00,VALID,917.922,VALID,0,VALID,99.0745,VALID,0.0849042,VALID,19.2505,VALID,86,VALID,0.809766,
2002-04-09, 01:10:00,VALID,917.912,VALID,0,VALID,99.0644,VALID,0.0169808,VALID,19.2411,VALID,105,VALID,0.608705,
2002-04-09, 01:11:00,VALID,917.89,VALID,0,VALID,99.0669,VALID,0.0339617,VALID,19.2373,VALID,105,VALID,0.445524,
2002-04-09, 01:12:00,VALID,917.867,VALID,0,VALID,99.0733,VALID,-0.0169808,VALID,19.2423,VALID,107,VALID,0.25,
2002-04-09, 01:13:00,VALID,917.851,VALID,0,VALID,99.0707,VALID,-0.101885,VALID,19.2589,VALID,114,VALID,0.247098,
2002-04-09, 01:14:00,VALID,917.822,VALID,0,VALID,99.0923,VALID,-0.0509425,VALID,19.2549,VALID,118,VALID,0.0989583,
2002-04-09, 01:15:00,VALID,917.81,VALID,0,VALID,99.0898,VALID,-0.0339617,VALID,19.2549,VALID,118,VALID,0.0147804,
2002-04-09, 01:16:00,VALID,917.791,VALID,0,VALID,99.0834,VALID,-0.0679233,VALID,19.2683,VALID,77,VALID,0.236842,
2002-04-09, 01:17:00,VALID,917.777,VALID,0,VALID,99.072,VALID,-0.0849042,VALID,19.2654,VALID,13,VALID,0.575893,
2002-04-09, 01:18:00,VALID,917.757,VALID,0,VALID,99.0427,VALID,-0.0679233,VALID,19.2462,VALID,11,VALID,0.632212,
2002-04-09, 01:19:00,VALID,917.734,VALID,0,VALID,99.0275,VALID,-0.101885,VALID,19.2201,VALID,5,VALID,0.325758,
2002-04-09, 01:20:00,VALID,917.726,VALID,0,VALID,99.0122,VALID,-0.101885,VALID,19.1943,VALID,5,VALID,0.251519,
2002-04-09, 01:21:00,VALID,917.715,VALID,0,VALID,99.0148,VALID,-0.101885,VALID,19.1873,VALID,3,VALID,0.344572,
2002-04-09, 01:22:00,VALID,917.695,VALID,0,VALID,99.0122,VALID,-0.0679233,VALID,19.1871,VALID,353,VALID,0.542869,
2002-04-09, 01:23:00,VALID,917.68,VALID,0,VALID,99.0186,VALID,-0.101885,VALID,19.1749,VALID,347,VALID,0.410742,
2002-04-09, 01:24:00,VALID,917.664,VALID,0,VALID,99.0122,VALID,-0.101885,VALID,19.1682,VALID,360,VALID,0.323438,
2002-04-09, 01:25:00,VALID,917.642,VALID,0,VALID,99.0148,VALID,-0.101885,VALID,19.1685,VALID,5,VALID,0.294975,
2002-04-09, 01:26:00,VALID,917.629,VALID,0,VALID,99.0275,VALID,-0.101885,VALID,19.1585,VALID,5,VALID,0.244026,
2002-04-09, 01:27:00,VALID,917.612,VALID,0,VALID,99.0224,VALID,-0.0169808,VALID,19.1603,VALID,5,VALID,0.0520089,
2002-04-09, 01:28:00,VALID,917.601,VALID,0,VALID,99.0249,VALID,0,VALID,19.1605,VALID,5,VALID,0,
2002-04-09, 01:29:00,VALID,917.587,VALID,0,VALID,99.0198,VALID,0.0169808,VALID,19.1444,VALID,5,VALID,0,
2002-04-09, 01:30:00,VALID,917.592,VALID,0,VALID,99.0084,VALID,0.0169808,VALID,19.1315,VALID,5,VALID,0,
2002-04-09, 01:31:00,VALID,917.568,VALID,0,VALID,99.0109,VALID,0.0339617,VALID,19.1349,VALID,5,VALID,0,
2002-04-09, 01:32:00,VALID,917.563,VALID,0,VALID,99.0135,VALID,0.0339617,VALID,19.1285,VALID,5,VALID,0,
2002-04-09, 01:33:00,VALID,917.537,VALID,0,VALID,99.0211,VALID,0.0169808,VALID,19.1315,VALID,5,VALID,0,
2002-04-09, 01:34:00,VALID,917.51,VALID,0,VALID,99.0313,VALID,0.0339617,VALID,19.1349,VALID,5,VALID,0.0757378,
2002-04-09, 01:35:00,VALID,917.496,VALID,0,VALID,99.0287,VALID,0.0169808,VALID,19.1278,VALID,5,VALID,0,
2002-04-09, 01:36:00,VALID,917.465,VALID,0,VALID,99.0402,VALID,0.0169808,VALID,19.1315,VALID,5,VALID,0,
2002-04-09, 01:37:00,VALID,917.451,VALID,0,VALID,99.0262,VALID,0.0339617,VALID,19.122,VALID,7,VALID,0.117969,
2002-04-09, 01:38:00,VALID,917.422,VALID,0,VALID,99.0173,VALID,0.0679233,VALID,19.1024,VALID,12,VALID,0.139286,
2002-04-09, 01:39:00,VALID,917.395,VALID,0,VALID,99.0237,VALID,0,VALID,19.083,VALID,12,VALID,0.0536318,
2002-04-09, 01:40:00,VALID,917.369,VALID,0,VALID,99.002,VALID,0.0169808,VALID,19.0607,VALID,17,VALID,0.078125,
2002-04-09, 01:41:00,VALID,917.339,VALID,0,VALID,98.9842,VALID,0,VALID,19.0413,VALID,44,VALID,0.327232,
2002-04-09, 01:42:00,VALID,917.314,VALID,0,VALID,99.0071,VALID,0.0169808,VALID,19.0182,VALID,44,VALID,0.194511,
2002-04-09, 01:43:00,VALID,917.293,VALID,0,VALID,99.0249,VALID,0.0169808,VALID,19.015,VALID,44,VALID,0.174831,
2002-04-09, 01:44:00,VALID,917.28,VALID,0,VALID,99.0211,VALID,0.0339617,VALID,19.0083,VALID,44,VALID,0.00452303,
2002-04-09, 01:45:00,VALID,917.265,VALID,0,VALID,99.0237,VALID,0.0509425,VALID,19.005,VALID,77,VALID,0.197768,
2002-04-09, 01:46:00,VALID,917.262,VALID,0,VALID,99.0364,VALID,0.0679233,VALID,19.0184,VALID,142,VALID,0.559495,
2002-04-09, 01:47:00,VALID,917.241,VALID,0,VALID,99.0656,VALID,0.0509425,VALID,19.0314,VALID,91,VALID,0.223958,
2002-04-09, 01:48:00,VALID,917.234,VALID,0,VALID,99.058,VALID,0.0169808,VALID,19.0276,VALID,29,VALID,0.211589,
2002-04-09, 01:49:00,VALID,917.225,VALID,0,VALID,99.0466,VALID,0.0169808,VALID,19.0284,VALID,113,VALID,0.193668,
2002-04-09, 01:50:00,VALID,917.194,VALID,0,VALID,99.0516,VALID,0.0679233,VALID,19.0249,VALID,137,VALID,0.144832,
2002-04-09, 01:51:00,VALID,917.182,VALID,0,VALID,99.0542,VALID,0.0339617,VALID,19.0247,VALID,138,VALID,0.464844,
2002-04-09, 01:52:00,VALID,917.158,VALID,0,VALID,99.0605,VALID,0.0169808,VALID,19.0311,VALID,138,VALID,0.39308,
2002-04-09, 01:53:00,VALID,917.144,VALID,0,VALID,99.0644,VALID,0.0169808,VALID,19.0214,VALID,138,VALID,0.55511,
2002-04-09, 01:54:00,VALID,917.123,VALID,0,VALID,99.0745,VALID,0.0169808,VALID,19.0418,VALID,139,VALID,0.613511,
2002-04-09, 01:55:00,VALID,917.126,VALID,0,VALID,99.0936,VALID,0,VALID,19.0378,VALID,146,VALID,0.574554,
2002-04-09, 01:56:00,VALID,917.111,VALID,0,VALID,99.0911,VALID,0,VALID,19.0381,VALID,137,VALID,0.48758,
2002-04-09, 01:57:00,VALID,917.109,VALID,0,VALID,99.0694,VALID,-0.101885,VALID,19.0326,VALID,131,VALID,0.370566,
2002-04-09, 01:58:00,VALID,917.114,VALID,0,VALID,99.0771,VALID,-0.118866,VALID,19.033,VALID,131,VALID,0.291324,
2002-04-09, 01:59:00,VALID,917.103,VALID,0,VALID,99.0834,VALID,-0.101885,VALID,19.0462,VALID,137,VALID,0.377009,
2002-04-09, 02:00:00,VALID,917.089,VALID,0,VALID,99.0809,VALID,-0.0849042,VALID,19.0328,VALID,149,VALID,0.436298,
2002-04-09, 02:01:00,VALID,917.067,VALID,0,VALID,99.0822,VALID,-0.0849042,VALID,19.0489,VALID,150,VALID,0.430398,
2002-04-09, 02:02:00,VALID,917.065,VALID,0,VALID,99.1012,VALID,-0.0679233,VALID,19.0718,VALID,162,VALID,0.610026,
2002-04-09, 02:03:00,VALID,917.055,VALID,0,VALID,99.0949,VALID,-0.101885,VALID,19.0976,VALID,151,VALID,0.630551,
2002-04-09, 02:04:00,VALID,917.039,VALID,0,VALID,99.0885,VALID,-0.0849042,VALID,19.1041,VALID,145,VALID,0.555088,
2002-04-09, 02:05:00,VALID,917.023,VALID,0,VALID,99.0809,VALID,-0.101885,VALID,19.1006,VALID,145,VALID,0.534961,
2002-04-09, 02:06:00,VALID,917.016,VALID,0,VALID,99.0682,VALID,-0.101885,VALID,19.1135,VALID,147,VALID,0.519643,
2002-04-09, 02:07:00,VALID,916.996,VALID,0,VALID,99.0593,VALID,-0.0849042,VALID,19.1006,VALID,150,VALID,0.548142,
2002-04-09, 02:08:00,VALID,916.983,VALID,0,VALID,99.0656,VALID,-0.0679233,VALID,19.1006,VALID,160,VALID,0.536305,
2002-04-09, 02:09:00,VALID,916.969,VALID,0,VALID,99.0605,VALID,-0.0849042,VALID,19.1009,VALID,160,VALID,0.505134,
2002-04-09, 02:10:00,VALID,916.959,VALID,0,VALID,99.0605,VALID,-0.101885,VALID,19.1041,VALID,159,VALID,0.536258,
2002-04-09, 02:11:00,VALID,916.949,VALID,0,VALID,99.0516,VALID,-0.101885,VALID,19.1046,VALID,159,VALID,0.395059,
2002-04-09, 02:12:00,VALID,916.944,VALID,0,VALID,99.0618,VALID,0,VALID,19.0927,VALID,159,VALID,0.309005,
2002-04-09, 02:13:00,VALID,916.92,VALID,0,VALID,99.0593,VALID,0,VALID,19.0962,VALID,153,VALID,0.335268,
2002-04-09, 02:14:00,VALID,916.92,VALID,0,VALID,99.058,VALID,0.0339617,VALID,19.0828,VALID,149,VALID,0.336538,
2002-04-09, 02:15:00,VALID,916.92,VALID,0,VALID,99.0618,VALID,0,VALID,19.08,VALID,149,VALID,0.469223,
2002-04-09, 02:16:00,VALID,916.925,VALID,0,VALID,99.0567,VALID,0.0339617,VALID,19.0766,VALID,156,VALID,0.581597,
2002-04-09, 02:17:00,VALID,916.932,VALID,0,VALID,99.0605,VALID,0.0169808,VALID,19.0634,VALID,164,VALID,0.608347,
2002-04-09, 02:18:00,VALID,916.939,VALID,0,VALID,99.0618,VALID,0,VALID,19.0666,VALID,164,VALID,0.480769,
2002-04-09, 02:19:00,VALID,916.926,VALID,0,VALID,99.0618,VALID,0.0169808,VALID,19.0607,VALID,154,VALID,0.365234,
2002-04-09, 02:20:00,VALID,916.912,VALID,0,VALID,99.0694,VALID,0.0849042,VALID,19.0704,VALID,134,VALID,0.102902,
2002-04-09, 02:21:00,VALID,916.899,VALID,0,VALID,99.0529,VALID,0,VALID,19.041,VALID,105,VALID,0.300663,
2002-04-09, 02:22:00,VALID,916.873,VALID,0,VALID,99.0491,VALID,0.0169808,VALID,19.0314,VALID,90,VALID,0.283088,
2002-04-09, 02:23:00,VALID,916.84,VALID,0,VALID,99.0516,VALID,0.0169808,VALID,19.0055,VALID,63,VALID,0.309152,
2002-04-09, 02:24:00,VALID,916.819,VALID,0,VALID,99.03,VALID,0.0509425,VALID,18.9762,VALID,63,VALID,0.242788,
2002-04-09, 02:25:00,VALID,916.798,VALID,0,VALID,99.0249,VALID,0.0339617,VALID,18.9404,VALID,63,VALID,0.49261,
2002-04-09, 02:26:00,VALID,916.785,VALID,0,VALID,99.0631,VALID,0,VALID,18.9536,VALID,73,VALID,0.797903,
2002-04-09, 02:27:00,VALID,916.744,VALID,0,VALID,99.1318,VALID,0.0339617,VALID,18.9988,VALID,75,VALID,0.944866,
2002-04-09, 02:28:00,VALID,916.72,VALID,0,VALID,99.147,VALID,0.0169808,VALID,19.0279,VALID,74,VALID,0.84976,
2002-04-09, 02:29:00,VALID,916.703,VALID,0,VALID,99.1406,VALID,0.0339617,VALID,19.0182,VALID,74,VALID,0.543324,
2002-04-09, 02:30:00,VALID,916.693,VALID,0,VALID,99.119,VALID,0.0169808,VALID,19.0055,VALID,74,VALID,0.196181,
2002-04-09, 02:31:00,VALID,916.688,VALID,0,VALID,99.1178,VALID,0.0169808,VALID,18.9956,VALID,74,VALID,0,
2002-04-09, 02:32:00,VALID,916.677,VALID,0,VALID,99.119,VALID,0,VALID,18.9961,VALID,74,VALID,0,
2002-04-09, 02:33:00,VALID,916.683,VALID,0,VALID,99.1165,VALID,0,VALID,18.9834,VALID,74,VALID,0.00683594,
2002-04-09, 02:34:00,VALID,916.668,VALID,0,VALID,99.1254,VALID,0,VALID,18.9829,VALID,74,VALID,0.119196,
2002-04-09, 02:35:00,VALID,916.67,VALID,0,VALID,99.1139,VALID,0,VALID,18.9698,VALID,74,VALID,0.160684,
2002-04-09, 02:36:00,VALID,916.656,VALID,0,VALID,99.1292,VALID,0.0169808,VALID,18.973,VALID,74,VALID,0.463695,
2002-04-09, 02:37:00,VALID,916.641,VALID,0,VALID,99.1139,VALID,0.0509425,VALID,18.9598,VALID,77,VALID,0.680804,
2002-04-09, 02:38:00,VALID,916.642,VALID,0,VALID,99.0834,VALID,0.0339617,VALID,18.9312,VALID,80,VALID,0.506611,
2002-04-09, 02:39:00,VALID,916.641,VALID,0,VALID,99.0733,VALID,0.0339617,VALID,18.8895,VALID,81,VALID,0.615498,
2002-04-09, 02:40:00,VALID,916.649,VALID,0,VALID,99.1038,VALID,0.0339617,VALID,18.883,VALID,91,VALID,0.529605,
2002-04-09, 02:41:00,VALID,916.658,VALID,0,VALID,99.1267,VALID,0.0849042,VALID,18.892,VALID,107,VALID,0.728795,
2002-04-09, 02:42:00,VALID,916.665,VALID,0,VALID,99.1572,VALID,-0.0849042,VALID,18.9128,VALID,113,VALID,0.922877,
2002-04-09, 02:43:00,VALID,916.667,VALID,0,VALID,99.1991,VALID,-0.101885,VALID,18.9518,VALID,109,VALID,1.02865,
2002-04-09, 02:44:00,VALID,916.662,VALID,0,VALID,99.2055,VALID,-0.101885,VALID,18.9744,VALID,105,VALID,1.01801,
2002-04-09, 02:45:00,VALID,916.639,VALID,0,VALID,99.2004,VALID,-0.0849042,VALID,18.9873,VALID,99,VALID,0.994038,
2002-04-09, 02:46:00,VALID,916.614,VALID,0,VALID,99.1839,VALID,-0.101885,VALID,18.9878,VALID,98,VALID,0.667067,
2002-04-09, 02:47:00,VALID,916.591,VALID,0,VALID,99.1674,VALID,-0.0679233,VALID,18.9546,VALID,98,VALID,0.39043,
2002-04-09, 02:48:00,VALID,916.559,VALID,0,VALID,99.1724,VALID,-0.0509425,VALID,18.9391,VALID,103,VALID,0.4125,
2002-04-09, 02:49:00,VALID,916.543,VALID,0,VALID,99.1635,VALID,-0.101885,VALID,18.9257,VALID,108,VALID,0.337204,
2002-04-09, 02:50:00,VALID,916.524,VALID,0,VALID,99.1635,VALID,-0.0679233,VALID,18.9327,VALID,76,VALID,0.193474,
2002-04-09, 02:51:00,VALID,916.509,VALID,0,VALID,99.1712,VALID,-0.101885,VALID,18.926,VALID,75,VALID,0,
2002-04-09, 02:52:00,VALID,916.492,VALID,0,VALID,99.175,VALID,-0.101885,VALID,18.9294,VALID,89,VALID,0.189704,
2002-04-09, 02:53:00,VALID,916.476,VALID,0,VALID,99.1902,VALID,-0.101885,VALID,18.9327,VALID,107,VALID,0.377323,
2002-04-09, 02:54:00,VALID,916.455,VALID,0,VALID,99.1928,VALID,-0.0849042,VALID,18.9327,VALID,120,VALID,0.383224,
2002-04-09, 02:55:00,VALID,916.46,VALID,0,VALID,99.1915,VALID,-0.101885,VALID,18.9327,VALID,122,VALID,0.189063,
2002-04-09, 02:56:00,VALID,916.45,VALID,0,VALID,99.189,VALID,-0.101885,VALID,18.9361,VALID,122,VALID,0.358373,
2002-04-09, 02:57:00,VALID,916.444,VALID,0,VALID,99.1724,VALID,0,VALID,18.9186,VALID,125,VALID,0.470881,
2002-04-09, 02:58:00,VALID,916.45,VALID,0,VALID,99.1826,VALID,-0.0169808,VALID,18.9052,VALID,150,VALID,0.26888,
2002-04-09, 02:59:00,VALID,916.471,VALID,0,VALID,99.1724,VALID,0,VALID,18.9119,VALID,167,VALID,0.152549,
2002-04-09, 03:00:00,VALID,916.481,VALID,0,VALID,99.2004,VALID,0,VALID,18.8989,VALID,167,VALID,0.297075,
2002-04-09, 03:01:00,VALID,916.48,VALID,0,VALID,99.1953,VALID,0,VALID,18.8994,VALID,167,VALID,0.00585938,
2002-04-09, 03:02:00,VALID,916.474,VALID,0,VALID,99.1928,VALID,0,VALID,18.8959,VALID,167,VALID,0,
2002-04-09, 03:03:00,VALID,916.448,VALID,0,VALID,99.1813,VALID,0.0169808,VALID,18.8731,VALID,167,VALID,0,
2002-04-09, 03:04:00,VALID,916.438,VALID,0,VALID,99.189,VALID,-0.0169808,VALID,18.8644,VALID,167,VALID,0,
2002-04-09, 03:05:00,VALID,916.421,VALID,0,VALID,99.1826,VALID,0,VALID,18.848,VALID,167,VALID,0,
2002-04-09, 03:06:00,VALID,916.413,VALID,0,VALID,99.1763,VALID,-0.0169808,VALID,18.8348,VALID,167,VALID,0,
2002-04-09, 03:07:00,VALID,916.402,VALID,0,VALID,99.1801,VALID,-0.0169808,VALID,18.8348,VALID,167,VALID,0,
2002-04-09, 03:08:00,VALID,916.393,VALID,0,VALID,99.1737,VALID,-0.0169808,VALID,18.8187,VALID,167,VALID,0,
2002-04-09, 03:09:00,VALID,916.364,VALID,0,VALID,99.1775,VALID,-0.0169808,VALID,18.8058,VALID,167,VALID,0,
2002-04-09, 03:10:00,VALID,916.36,VALID,0,VALID,99.1674,VALID,0,VALID,18.7903,VALID,167,VALID,0,
2002-04-09, 03:11:00,VALID,916.357,VALID,0,VALID,99.1343,VALID,-0.0509425,VALID,18.7183,VALID,167,VALID,0,
2002-04-09, 03:12:00,VALID,916.355,VALID,0,VALID,99.1076,VALID,-0.0169808,VALID,18.66,VALID,99,VALID,0,
2002-04-09, 03:13:00,VALID,916.364,VALID,0,VALID,99.1076,VALID,-0.0169808,VALID,18.6314,VALID,42,VALID,0.778783,
2002-04-09, 03:14:00,VALID,916.377,VALID,0,VALID,99.1165,VALID,0,VALID,18.5954,VALID,37,VALID,0.617588,
2002-04-09, 03:15:00,VALID,916.389,VALID,0,VALID,99.1381,VALID,-0.0339617,VALID,18.5827,VALID,29,VALID,0.392383,
2002-04-09, 03:16:00,VALID,916.424,VALID,0,VALID,99.1534,VALID,-0.0169808,VALID,18.5665,VALID,25,VALID,0.260491,
2002-04-09, 03:17:00,VALID,916.451,VALID,0,VALID,99.1559,VALID,0,VALID,18.5479,VALID,25,VALID,0,
2002-04-09, 03:18:00,VALID,916.457,VALID,0,VALID,99.1775,VALID,-0.0339617,VALID,18.5315,VALID,25,VALID,0,
2002-04-09, 03:19:00,VALID,916.486,VALID,0,VALID,99.175,VALID,-0.0169808,VALID,18.5377,VALID,25,VALID,0,
2002-04-09, 03:20:00,VALID,916.486,VALID,0,VALID,99.2004,VALID,-0.0169808,VALID,18.567,VALID,25,VALID,0.0755208,
2002-04-09, 03:21:00,VALID,916.502,VALID,0,VALID,99.2169,VALID,-0.0169808,VALID,18.573,VALID,25,VALID,0.0139358,
2002-04-09, 03:22:00,VALID,916.502,VALID,0,VALID,99.2284,VALID,0,VALID,18.5866,VALID,25,VALID,0,
2002-04-09, 03:23:00,VALID,916.494,VALID,0,VALID,99.2271,VALID,-0.0169808,VALID,18.567,VALID,25,VALID,0,
2002-04-09, 03:24:00,VALID,916.483,VALID,0,VALID,99.2182,VALID,-0.0169808,VALID,18.5506,VALID,25,VALID,0,
2002-04-09, 03:25:00,VALID,916.479,VALID,0,VALID,99.2093,VALID,-0.0169808,VALID,18.5513,VALID,25,VALID,0,
2002-04-09, 03:26:00,VALID,916.464,VALID,0,VALID,99.2106,VALID,-0.0339617,VALID,18.5285,VALID,25,VALID,0,
2002-04-09, 03:27:00,VALID,916.472,VALID,0,VALID,99.2119,VALID,-0.0509425,VALID,18.5313,VALID,25,VALID,0,
2002-04-09, 03:28:00,VALID,916.468,VALID,0,VALID,99.2538,VALID,0,VALID,18.5476,VALID,49,VALID,0.351963,
2002-04-09, 03:29:00,VALID,916.477,VALID,0,VALID,99.3238,VALID,0,VALID,18.6316,VALID,80,VALID,0.600586,
2002-04-09, 03:30:00,VALID,916.482,VALID,0,VALID,99.3505,VALID,0,VALID,18.7026,VALID,91,VALID,0.695982,
2002-04-09, 03:31:00,VALID,916.481,VALID,0,VALID,99.3619,VALID,0,VALID,18.7541,VALID,96,VALID,0.731841,
2002-04-09, 03:32:00,VALID,916.489,VALID,0,VALID,99.3594,VALID,0,VALID,18.7668,VALID,99,VALID,0.780331,
2002-04-09, 03:33:00,VALID,916.491,VALID,0,VALID,99.3606,VALID,-0.0169808,VALID,18.8028,VALID,98,VALID,0.796875,